sat.trackr.live / text

‹ back to catalog

STARLINK-35913

NORAD 67004 · 2025-293B

PAYLOAD ACTIVE UNKNOWN

§ Identity

Operator
Country
US
Launch date
2025-12-10
Launch site
AFWTR
Launch vehicle
Mass (kg)
RCS (m²)

Purposes: comms

External: N2YO · Heavens-Above · Gunter

§ Orbital elements

Epoch: 2026-05-25T00:50:21.942816Z

Period
96.11 min
Inclination
70.0007°
Eccentricity
0.0003104
Mean motion
14.98334854 rev/d
Perigee alt
569.9 km
Apogee alt
574.2 km
Semi-major
6,950.2 km
B*
1.8888e-4
RAAN
261.9597°
Arg perigee
268.7328°
Mean anomaly
91.3475°
Rev number
2,631

§ Raw data

STARLINK-359131 67004U 25293B   26145.03497619  .00002162  00000+0  18888-3 0  99912 67004  70.0007 261.9597 0003104 268.7328  91.3475 14.98334854 26316

JSON: /api/v1/satellites/67004 · /tle

For live sub-satellite position, see the globe view (requires WebGL).

§ Visibility from observer

Set your observer location to see the next 7 days of passes ≥ 10°. The values pass through the URL so the page stays shareable.

No JS? Fill the form by hand. The geolocation button needs JavaScript.